CZ-6A DEB, 55002

Orbit data source: Space-Track

CZ-6A DEB, 55002 is space debris in SSO originally from a launch on Fri, 11 Nov 2022 UTC launched from the Taiyaun Space Center, China (TSC). Debris objects in space refer to the collection of defunct objects orbiting the Earth. Examples of debris include non-operational satellites, rocket bodies, and fragments generated from explosions, collisions, or faulty payload assembly.

Loading next visibility...
Identifier
55002, 2022-151US
Orbit
SSO
Country
Flag of CNCN / PRC
Related business
Manufacturer
SAST
Mission
Spacecraft
Bus & Motor
Unknown
Mass
Unknown
Launch date (UTC)
2022-11-11 (4 years ago)
Launch vehicle
Unknown
Launch site
Taiyaun Space Center, China (TSC)
Object type
Payload
Rocket body
Debris
Shape & HBR
Unknown shape, 0.1 m
Radar Cross Section
Medium (>0.1 m² and <1 m²)

Expand to show TLE details & history
Last TLE update: 2 days ago

TLE from 2 days ago
0 CZ-6A DEB
1 55002U 22151US  26171.45270796  .00000926  00000-0  47521-3 0  9999
2 55002  98.7936 178.5062 0027215 316.7198  43.1839 14.17664941184922
Epoch: 2026-06-20T10:51Z
TLE epoch observation values (Epoch: 2026-06-20T10:51:53.967Z)
Latitude
-0.00002°
Longitude
106.86422°
Altitude
821.881 km
Speed
7.45 km/s
True Right ascension
11h 54m 01s
True Declination
0° 00' 00"
Sunlit
Object was in daylight at epoch
Visualization orbit readout
Latitude
Unknown
Longitude
Unknown
Altitude
Unknown
Speed
Unknown
Apparent Right ascension
Unknown
Apparent Declination
Unknown
Sunlit
N/A
Visualization observer readout
Local Sidereal Time
23:19:49
Azimuth
Unknown
Elevation
Unknown
Doppler factor
Unknown
Orbital elements
Apogee altitude
850.044 km
Perigee altitude
810.808 km
Semi-major axis
7,208.563 km
Eccentricity
0.00272
Inclination
98.7936°
RAAN
178.5062°
Arg. of periapsis
316.7198°
True anomaly
43.39785°
Mean anomaly
43.1839°
Eccentric anomaly
43.29082°
Mean motion
3.54626 °/min
Orbital period
101.52 mins
BSTAR
0.00047521
Loading maneuver chart data...
Computing Atmospheric mass density...
Loading historical data...
Loading historical data...
Loading historical data...
Loading historical data...
Loading historical data...
Loading historical data...
Loading historical data...

Documentation

Showing up to 5 results
|